| time (UTC) | temp F | wind direction | speed MPH | gust MPH | rain 1hr in | rain 24hr in | rain mn in | humidity % | barometer mb |
| 20260903133918 | 53 | 144 | 1.0 | 3.0 | 0.00 | 0.63 | 0.01 | 94 | 1009.4 |
| 20260903133819 | 53 | 264 | 0.0 | 3.0 | 0.01 | 0.63 | 0.01 | 93 | 1009.5 |
| 20260903133723 | 53 | 173 | 1.0 | 3.0 | 0.00 | 0.63 | 0.01 | 94 | 1009.5 |
| 20260903131836 | 53 | 225 | 1.0 | 4.0 | 0.00 | 0.63 | 0.01 | 94 | 1009.5 |
| 20260903125655 | 53 | 208 | 1.0 | 2.0 | 0.01 | 0.63 | 0.01 | 93 | 1009.6 |
| 20260903125141 | 53 | 248 | 1.0 | 5.0 | 0.01 | 0.63 | 0.01 | 93 | 1009.6 |
| 20260903123657 | 53 | 215 | 1.0 | 3.0 | 0.01 | 0.63 | 0.01 | 93 | 1009.7 |
| 20260903122656 | 53 | 217 | 0.0 | 2.0 | 0.01 | 0.63 | 0.01 | 93 | 1009.6 |
| 20260903121658 | 53 | 205 | 0.0 | 2.0 | 0.01 | 0.63 | 0.01 | 93 | 1009.7 |
| 20260903120656 | 53 | 271 | 1.0 | 3.0 | 0.00 | 0.62 | 0.00 | 93 | 1010.0 |
| 20260903115657 | 53 | 186 | 0.0 | 2.0 | 0.00 | 0.62 | 0.00 | 93 | 1009.8 |
| 20260903114657 | 53 | 173 | 0.0 | 3.0 | 0.00 | 0.62 | 0.00 | 93 | 1009.8 |
| 20260903113657 | 53 | 217 | 0.0 | 0.0 | 0.00 | 0.62 | 0.00 | 93 | 1009.7 |
| 20260903112656 | 53 | 217 | 0.0 | 3.0 | 0.00 | 0.62 | 0.00 | 92 | 1009.7 |
| 20260903112141 | 53 | 110 | 0.0 | 3.0 | 0.00 | 0.62 | 0.00 | 92 | 1009.8 |
| 20260903110656 | 53 | 233 | 1.0 | 6.0 | 0.00 | 0.62 | 0.00 | 92 | 1009.6 |
| 20260903105656 | 53 | 242 | 1.0 | 7.0 | 0.00 | 0.62 | 0.00 | 93 | 1009.5 |
| 20260903104701 | 53 | 80 | 0.0 | 4.0 | 0.00 | 0.62 | 0.00 | 93 | 1009.5 |
| 20260903103655 | 53 | 230 | 0.0 | 3.0 | 0.00 | 0.62 | 0.00 | 93 | 1009.7 |
| 20260903102652 | 53 | 226 | 0.0 | 1.0 | 0.00 | 0.62 | 0.00 | 93 | 1009.8 |
| 20260903101651 | 53 | 227 | 0.0 | 4.0 | 0.00 | 0.62 | 0.00 | 93 | 1009.7 |
| 20260903100652 | 53 | 169 | 1.0 | 5.0 | 0.00 | 0.62 | 0.00 | 93 | 1009.7 |
| 20260903095652 | 53 | 234 | 0.0 | 3.0 | 0.00 | 0.62 | 0.00 | 94 | 1009.8 |
| 20260903094650 | 53 | 232 | 0.0 | 2.0 | 0.00 | 0.62 | 0.00 | 94 | 1009.9 |
| 20260903093649 | 53 | 192 | 0.0 | 3.0 | 0.00 | 0.62 | 0.00 | 94 | 1010.0 |
| 20260903092649 | 53 | 74 | 0.0 | 1.0 | 0.00 | 0.62 | 0.00 | 94 | 1010.0 |
| 20260903091650 | 53 | 241 | 0.0 | 2.0 | 0.00 | 0.62 | 0.00 | 94 | 1010.1 |
| 20260903090649 | 54 | 207 | 0.0 | 3.0 | 0.00 | 0.62 | 0.00 | 94 | 1010.1 |
| 20260903085650 | 54 | 202 | 0.0 | 4.0 | 0.00 | 0.62 | 0.00 | 94 | 1010.2 |
| 20260903084649 | 54 | 208 | 1.0 | 4.0 | 0.00 | 0.62 | 0.00 | 94 | 1010.1 |
| 20260903083648 | 54 | 196 | 1.0 | 4.0 | 0.00 | 0.62 | 0.00 | 94 | 1010.1 |
| 20260903082649 | 54 | 213 | 1.0 | 4.0 | 0.00 | 0.62 | 0.00 | 95 | 1010.1 |
| 20260903081647 | 54 | 217 | 0.0 | 3.0 | 0.00 | 0.62 | 0.00 | 95 | 1010.3 |
| 20260903080653 | 54 | 232 | 1.0 | 3.0 | 0.00 | 0.62 | 0.00 | 95 | 1010.3 |
| 20260903075701 | 53 | 230 | 0.0 | 3.0 | 0.00 | 0.62 | 0.00 | 96 | 1010.2 |
| 20260903074643 | 53 | 198 | 0.0 | 3.0 | 0.00 | 0.62 | 0.00 | 96 | 1010.4 |
| 20260903074140 | 53 | 38 | 0.0 | 1.0 | 0.00 | 0.62 | 0.00 | 95 | 1010.3 |
| 20260903072642 | 53 | 281 | 0.0 | 0.0 | 0.00 | 0.62 | 0.00 | 95 | 1010.4 |
| 20260903071643 | 53 | 177 | 0.0 | 4.0 | 0.00 | 0.62 | 0.00 | 95 | 1010.2 |
| 20260903071233 | 54 | 234 | 0.0 | 3.0 | 0.00 | 0.62 | 0.62 | 95 | 1010.2 |
| 20260903071110 | 53 | 192 | 0.0 | 4.0 | 0.00 | 0.62 | 0.00 | 95 | 1010.3 |
| 20260903065116 | 53 | 234 | 0.0 | 3.0 | 0.00 | 0.62 | 0.62 | 95 | 1010.2 |
| 20260903063642 | 53 | 144 | 0.0 | 0.0 | 0.00 | 0.62 | 0.62 | 95 | 1010.2 |
| 20260903062641 | 54 | 157 | 0.0 | 3.0 | 0.00 | 0.62 | 0.62 | 95 | 1010.2 |
| 20260903061644 | 54 | 227 | 0.0 | 2.0 | 0.00 | 0.62 | 0.62 | 95 | 1010.3 |
| 20260903060639 | 54 | 219 | 0.0 | 2.0 | 0.00 | 0.62 | 0.62 | 95 | 1010.2 |
| 20260903055640 | 54 | 215 | 0.0 | 2.0 | 0.00 | 0.62 | 0.62 | 95 | 1010.2 |
| 20260903054639 | 54 | 218 | 0.0 | 2.0 | 0.00 | 0.62 | 0.62 | 95 | 1010.1 |
| 20260903054126 | 54 | 101 | 0.0 | 0.0 | 0.00 | 0.62 | 0.62 | 95 | 1010.1 |
| 20260903052640 | 54 | 84 | 0.0 | 0.0 | 0.00 | 0.62 | 0.62 | 95 | 1010.3 |
| 20260903051639 | 55 | 84 | 0.0 | 0.0 | 0.00 | 0.62 | 0.62 | 95 | 1010.3 |
| 20260903050639 | 55 | 84 | 0.0 | 0.0 | 0.00 | 0.62 | 0.62 | 95 | 1010.2 |
| 20260903050123 | 55 | 188 | 0.0 | 0.0 | 0.00 | 0.62 | 0.62 | 95 | 1010.2 |
| 20260903044641 | 55 | 188 | 0.0 | 0.0 | 0.00 | 0.62 | 0.62 | 94 | 1010.1 |
| 20260903043641 | 55 | 216 | 0.0 | 0.0 | 0.00 | 0.62 | 0.62 | 94 | 1010.1 |
| 20260903043120 | 55 | 216 | 0.0 | 0.0 | 0.00 | 0.62 | 0.62 | 94 | 1010.1 |
| 20260903041640 | 55 | 216 | 0.0 | 0.0 | 0.00 | 0.62 | 0.62 | 94 | 1009.9 |
| 20260903040640 | 56 | 202 | 0.0 | 1.0 | 0.00 | 0.62 | 0.62 | 94 | 1009.8 |
| 20260903040117 | 56 | 196 | 0.0 | 0.0 | 0.00 | 0.62 | 0.62 | 94 | 1009.8 |
| 20260903034638 | 56 | 196 | 0.0 | 0.0 | 0.00 | 0.62 | 0.62 | 93 | 1009.5 |
| 20260903033639 | 57 | 196 | 0.0 | 1.0 | 0.00 | 0.62 | 0.62 | 93 | 1009.4 |
| 20260903032635 | 57 | 228 | 0.0 | 1.0 | 0.00 | 0.62 | 0.62 | 93 | 1009.2 |
| 20260903032111 | 57 | 229 | 0.0 | 1.0 | 0.01 | 0.62 | 0.62 | 93 | 1009.1 |
| 20260903030635 | 58 | 142 | 0.0 | 2.0 | 0.01 | 0.62 | 0.62 | 92 | 1009.1 |
| 20260903025635 | 58 | 206 | 0.0 | 1.0 | 0.01 | 0.62 | 0.62 | 92 | 1009.1 |
| 20260903024640 | 58 | 184 | 0.0 | 1.0 | 0.01 | 0.62 | 0.62 | 91 | 1009.0 |
| 20260903023636 | 58 | 242 | 0.0 | 1.0 | 0.02 | 0.62 | 0.62 | 91 | 1008.9 |
| 20260903022636 | 58 | 208 | 0.0 | 0.0 | 0.02 | 0.62 | 0.61 | 91 | 1008.7 |
| 20260903021637 | 58 | 208 | 0.0 | 2.0 | 0.01 | 0.61 | 0.61 | 90 | 1008.8 |
| 20260903020635 | 59 | 221 | 0.0 | 0.0 | 0.01 | 0.61 | 0.61 | 91 | 1008.5 |
| 20260903015635 | 58 | 340 | 0.0 | 0.0 | 0.03 | 0.61 | 0.61 | 91 | 1008.4 |
| 20260903014635 | 58 | 340 | 1.0 | 4.0 | 0.12 | 0.61 | 0.61 | 90 | 1008.3 |
| 20260903013634 | 59 | 248 | 0.0 | 1.0 | 0.20 | 0.60 | 0.60 | 92 | 1008.3 |
| 20260903013119 | 58 | 302 | 1.0 | 4.0 | 0.22 | 0.60 | 0.60 | 92 | 1008.0 |
| 20260903011634 | 59 | 273 | 0.0 | 4.0 | 0.24 | 0.60 | 0.60 | 94 | 1008.0 |
| 20260903010634 | 58 | 304 | 0.0 | 1.0 | 0.26 | 0.60 | 0.60 | 93 | 1008.0 |
| 20260903005634 | 58 | 295 | 1.0 | 8.0 | 0.25 | 0.58 | 0.57 | 91 | 1008.0 |
| 20260903004631 | 59 | 156 | 1.0 | 4.0 | 0.16 | 0.49 | 0.48 | 91 | 1007.9 |
| 20260903003631 | 60 | 296 | 0.0 | 3.0 | 0.07 | 0.40 | 0.40 | 91 | 1007.7 |
| 20260903002631 | 60 | 217 | 1.0 | 5.0 | 0.05 | 0.38 | 0.37 | 89 | 1007.7 |
| 20260903001631 | 60 | 240 | 0.0 | 7.0 | 0.03 | 0.36 | 0.36 | 87 | 1007.4 |
| 20260903000629 | 61 | 228 | 3.0 | 12.0 | 0.01 | 0.34 | 0.34 | 86 | 1007.1 |
| 20260902235631 | 61 | 230 | 2.0 | 15.0 | 0.00 | 0.33 | 0.33 | 86 | 1007.3 |
| 20260902235127 | 60 | 227 | 2.0 | 8.0 | 0.01 | 0.33 | 0.33 | 87 | 1007.3 |
| 20260902234128 | 60 | 232 | 1.0 | 5.0 | 0.01 | 0.33 | 0.33 | 88 | 1007.3 |
| 20260902232629 | 60 | 162 | 1.0 | 5.0 | 0.02 | 0.33 | 0.33 | 89 | 1007.0 |
| 20260902231630 | 60 | 184 | 1.0 | 7.0 | 0.03 | 0.33 | 0.33 | 89 | 1006.9 |
| 20260902230631 | 60 | 162 | 1.0 | 8.0 | 0.03 | 0.33 | 0.33 | 89 | 1006.9 |
| 20260902225630 | 60 | 263 | 1.0 | 9.0 | 0.05 | 0.33 | 0.33 | 89 | 1006.9 |
| 20260902224629 | 60 | 167 | 1.0 | 9.0 | 0.05 | 0.32 | 0.32 | 89 | 1006.9 |
| 20260902223629 | 60 | 231 | 1.0 | 5.0 | 0.05 | 0.32 | 0.31 | 89 | 1006.8 |
| 20260902222629 | 60 | 223 | 2.0 | 9.0 | 0.04 | 0.31 | 0.31 | 89 | 1006.7 |
| 20260902221629 | 60 | 110 | 1.0 | 4.0 | 0.03 | 0.30 | 0.30 | 90 | 1006.8 |
| 20260902220636 | 60 | 217 | 0.0 | 4.0 | 0.03 | 0.30 | 0.29 | 91 | 1006.6 |
| 20260902215630 | 60 | 178 | 0.0 | 2.0 | 0.01 | 0.28 | 0.28 | 92 | 1006.4 |
| 20260902214633 | 60 | 136 | 0.0 | 1.0 | 0.01 | 0.27 | 0.27 | 92 | 1006.4 |
| 20260902214540 | 60 | 146 | 0.0 | 2.0 | 0.02 | 0.27 | 0.27 | 92 | 1006.4 |
| 20260902212627 | 60 | 13 | 0.0 | 3.0 | 0.02 | 0.27 | 0.27 | 92 | 1006.6 |
| 20260902211629 | 60 | 165 | 0.0 | 1.0 | 0.02 | 0.27 | 0.27 | 92 | 1006.5 |
| 20260902210627 | 60 | 165 | 0.0 | 2.0 | 0.02 | 0.27 | 0.27 | 91 | 1006.4 |
| 20260902205628 | 60 | 209 | 0.0 | 1.0 | 0.02 | 0.27 | 0.27 | 91 | 1006.3 |
| 20260902204626 | 59 | 213 | 0.0 | 3.0 | 0.01 | 0.26 | 0.26 | 91 | 1006.3 |
| 20260902203626 | 59 | 214 | 0.0 | 2.0 | 0.00 | 0.25 | 0.25 | 91 | 1006.3 |
| 20260902202626 | 59 | 201 | 0.0 | 2.0 | 0.01 | 0.25 | 0.25 | 90 | 1006.2 |
| 20260902201626 | 59 | 133 | 0.0 | 2.0 | 0.01 | 0.25 | 0.25 | 90 | 1006.1 |
| 20260902200627 | 59 | 68 | 0.0 | 2.0 | 0.01 | 0.25 | 0.25 | 91 | 1006.0 |
| 20260902195624 | 59 | 202 | 0.0 | 1.0 | 0.01 | 0.25 | 0.25 | 91 | 1006.1 |
| 20260902194622 | 59 | 229 | 0.0 | 1.0 | 0.02 | 0.25 | 0.25 | 91 | 1006.1 |
| 20260902193622 | 59 | 78 | 0.0 | 3.0 | 0.01 | 0.24 | 0.24 | 91 | 1006.1 |
| 20260902192622 | 58 | 201 | 0.0 | 2.0 | 0.02 | 0.24 | 0.24 | 91 | 1006.0 |
| 20260902191622 | 58 | 166 | 1.0 | 3.0 | 0.02 | 0.24 | 0.24 | 91 | 1005.9 |
| 20260902190621 | 58 | 230 | 0.0 | 2.0 | 0.02 | 0.24 | 0.24 | 92 | 1005.9 |
| 20260902185623 | 58 | 136 | 0.0 | 3.0 | 0.02 | 0.24 | 0.24 | 92 | 1005.8 |
| 20260902184623 | 58 | 288 | 0.0 | 4.0 | 0.02 | 0.23 | 0.23 | 92 | 1005.7 |
| 20260902183624 | 58 | 271 | 1.0 | 6.0 | 0.04 | 0.23 | 0.23 | 92 | 1005.8 |
| 20260902182626 | 58 | 242 | 0.0 | 2.0 | 0.07 | 0.22 | 0.22 | 93 | 1005.8 |
| 20260902181621 | 58 | 279 | 0.0 | 4.0 | 0.11 | 0.22 | 0.22 | 93 | 1005.8 |
| 20260902180619 | 58 | 249 | 0.0 | 1.0 | 0.15 | 0.22 | 0.22 | 92 | 1005.9 |
| 20260902175618 | 58 | 331 | 0.0 | 3.0 | 0.17 | 0.22 | 0.22 | 92 | 1006.0 |
| 20260902174618 | 58 | 157 | 0.0 | 0.0 | 0.17 | 0.21 | 0.21 | 91 | 1006.3 |
| 20260902173619 | 58 | 155 | 0.0 | 0.0 | 0.15 | 0.19 | 0.19 | 91 | 1006.4 |
| 20260902172616 | 58 | 151 | 0.0 | 2.0 | 0.11 | 0.15 | 0.14 | 90 | 1006.3 |
| 20260902172102 | 58 | 143 | 0.0 | 1.0 | 0.08 | 0.11 | 0.11 | 90 | 1006.4 |
| 20260902170614 | 58 | 208 | 0.0 | 2.0 | 0.05 | 0.07 | 0.07 | 89 | 1006.0 |
| 20260902165621 | 58 | 232 | 0.0 | 2.0 | 0.05 | 0.05 | 0.05 | 88 | 1005.9 |
| 20260902164612 | 58 | 241 | 0.0 | 3.0 | 0.04 | 0.04 | 0.04 | 87 | 1005.8 |
| 20260902163610 | 58 | 144 | 0.0 | 2.0 | 0.04 | 0.04 | 0.04 | 87 | 1005.7 |
| 20260902162608 | 59 | 215 | 0.0 | 2.0 | 0.04 | 0.04 | 0.04 | 87 | 1005.8 |
| 20260902161608 | 59 | 118 | 0.0 | 2.0 | 0.03 | 0.03 | 0.03 | 86 | 1006.0 |
| 20260902161107 | 59 | 128 | 0.0 | 4.0 | 0.02 | 0.02 | 0.02 | 86 | 1006.0 |
| 20260902155608 | 59 | 161 | 0.0 | 0.0 | 0.00 | 0.00 | 0.00 | 84 | 1006.0 |
| 20260902154606 | 59 | 145 | 0.0 | 2.0 | 0.00 | 0.00 | 0.00 | 83 | 1006.0 |
| 20260902153607 | 59 | 183 | 0.0 | 1.0 | 0.00 | 0.00 | 0.00 | 83 | 1006.1 |
| 20260902152605 | 59 | 191 | 0.0 | 1.0 | 0.00 | 0.00 | 0.00 | 84 | 1006.2 |
| 20260902152039 | 59 | 178 | 0.0 | 1.0 | 0.00 | 0.00 | 0.00 | 84 | 1006.2 |
| 20260902150605 | 58 | 240 | 0.0 | 2.0 | 0.00 | 0.00 | 0.00 | 85 | 1006.2 |
| 20260902150049 | 58 | 205 | 0.0 | 0.0 | 0.00 | 0.00 | 0.00 | 86 | 1006.1 |
| 20260902144606 | 58 | 205 | 0.0 | 1.0 | 0.00 | 0.00 | 0.00 | 86 | 1006.3 |
| 20260902143604 | 58 | 144 | 0.0 | 1.0 | 0.00 | 0.00 | 0.00 | 86 | 1006.4 |
| 20260902142605 | 58 | 270 | 0.0 | 2.0 | 0.00 | 0.00 | 0.00 | 87 | 1006.5 |
| 20260902141604 | 58 | 217 | 0.0 | 0.0 | 0.00 | 0.00 | 0.00 | 88 | 1006.7 |
| 20260902140602 | 57 | 217 | 0.0 | 0.0 | 0.00 | 0.00 | 0.00 | 88 | 1006.7 |
| 20260902140038 | 57 | 216 | 0.0 | 1.0 | 0.00 | 0.00 | 0.00 | 88 | 1007.0 |
| 20260902134603 | 57 | 173 | 0.0 | 0.0 | 0.00 | 0.00 | 0.00 | 88 | 1007.1 |